KG5VSR Weather Reports


time (UTC)temp
C
wind
direction
speed
KPH
gust
KPH
rain 1hr
cm
rain 24hr
cm
rain mn
cm
humidity
%
barometer
mb
20260508055607 15 176 0.0 0.0 0.00 0.00 0.00 90 1016.0
20260508052602 15 176 0.0 0.0 0.00 0.00 0.00 89 1016.4
20260508045557 16 176 0.0 0.0 0.00 0.00 0.00 88 1016.1
20260508042556 16 177 0.0 0.0 0.00 0.00 0.00 86 1016.1
20260508035555 16 176 0.0 0.0 0.00 0.00 0.00 85 1016.1
20260508032549 16 176 0.0 0.0 0.00 0.00 0.00 84 1016.0
20260508025547 17 177 0.0 0.0 0.00 0.00 0.00 82 1016.0
20260508022545 17 176 0.0 0.0 0.00 0.00 0.00 80 1015.9
20260508015544 17 176 0.0 0.0 0.00 0.00 0.00 77 1015.3
20260508012542 18 177 0.0 0.0 0.00 0.00 0.00 74 1015.8
20260508005537 19 177 0.0 0.0 0.00 0.00 0.00 71 1015.3
20260508002534 20 146 1.6 1.6 0.00 0.00 0.00 68 1015.5
20260507235531 20 189 1.6 1.6 0.00 0.00 0.00 67 1015.7
20260507232530 20 146 3.2 4.8 0.00 0.00 0.00 69 1015.2
20260507225527 20 185 0.0 1.6 0.00 0.00 0.00 68 1015.7
20260507222524 22 231 0.0 0.0 0.00 0.00 0.00 59 1015.9
20260507215522 22 63 0.0 1.6 0.00 0.00 0.00 58 1015.9
20260507212520 22 152 0.0 1.6 0.00 0.00 0.00 59 1016.5
20260507205518 22 46 3.2 4.8 0.00 0.00 0.00 58 1016.5
20260507202515 23 75 4.8 4.8 0.00 0.00 0.00 56 1016.5
20260507195510 23 175 4.8 8.0 0.00 0.00 0.00 56 1016.9
20260507192507 23 330 8.0 9.7 0.00 0.00 0.00 53 1017.5
20260507185508 22 69 8.0 9.7 0.00 0.00 0.00 55 1018.0
20260507182507 22 335 4.8 4.8 0.00 0.00 0.00 54 1017.9
20260507175503 21 33 3.2 3.2 0.00 0.00 0.00 56 1018.4
20260507172503 21 75 1.6 8.0 0.00 0.00 0.00 58 1019.0
20260507165459 20 69 4.8 8.0 0.00 0.00 0.00 60 1019.9
20260507162457 18 349 1.6 1.6 0.00 0.00 0.00 67 1020.0
20260507155453 18 46 0.0 0.0 0.00 0.00 0.00 67 1020.0
20260507152451 18 328 1.6 3.2 0.00 0.00 0.00 67 1020.5
20260507145447 17 1 1.6 3.2 0.00 0.00 0.00 72 1020.6
20260507142445 17 1 3.2 3.2 0.00 0.00 0.00 73 1020.9
20260507135444 15 281 0.0 0.0 0.00 0.00 0.00 82 1021.2
20260507132442 13 277 0.0 0.0 0.00 0.00 0.00 88 1021.2
20260507125438 12 291 0.0 0.0 0.00 0.00 0.00 98 1021.1
20260507122435 11 296 0.0 0.0 0.00 0.00 0.00 99 1020.6
20260507115430 11 296 0.0 0.0 0.00 0.00 0.00 99 1020.4
20260507112429 11 297 0.0 0.0 0.00 0.00 0.00 98 1020.1
20260507105426 11 329 0.0 0.0 0.00 0.00 0.00 98 1019.7
20260507102422 11 41 0.0 0.0 0.00 0.00 0.00 97 1018.9
20260507095421 11 41 0.0 0.0 0.00 0.00 0.00 95 1018.8
20260507092421 12 41 0.0 0.0 0.00 0.00 0.00 91 1018.5
20260507085418 12 21 0.0 0.0 0.00 0.00 0.00 90 1018.4
20260507082415 12 25 0.0 0.0 0.00 0.00 0.00 91 1018.4
20260507075410 13 59 0.0 1.6 0.00 0.00 0.00 90 1018.0
20260507072410 13 42 0.0 0.0 0.00 0.00 0.00 91 1017.5
20260507065409 13 323 1.6 1.6 0.00 0.00 0.00 89 1017.7
20260507062405 13 61 1.6 3.2 0.00 0.00 0.00 88 1017.7